Year,Month,Day,Hour,Minute,Value (Times are PST for temperature in C)
2015,07,04,00,00,21.20
2015,07,04,00,01,21.30
2015,07,04,00,02,21.30
2015,07,04,00,03,21.30
2015,07,04,00,04,21.30
2015,07,04,00,05,21.30
2015,07,04,00,06,21.30
2015,07,04,00,07,21.30
2015,07,04,00,08,21.30
2015,07,04,00,09,21.30
2015,07,04,00,10,21.30
2015,07,04,00,11,21.20
2015,07,04,00,12,21.20
2015,07,04,00,13,21.10
2015,07,04,00,14,21.10
2015,07,04,00,15,21.00
2015,07,04,00,16,21.00
2015,07,04,00,17,21.00
2015,07,04,00,18,21.00
2015,07,04,00,19,21.00
2015,07,04,00,20,21.00
2015,07,04,00,21,21.10
2015,07,04,00,22,21.10
2015,07,04,00,23,21.10
2015,07,04,00,24,21.10
2015,07,04,00,25,21.10
2015,07,04,00,26,21.10
2015,07,04,00,27,21.10
2015,07,04,00,28,21.10
2015,07,04,00,29,21.10
2015,07,04,00,30,21.10
2015,07,04,00,31,21.00
2015,07,04,00,32,20.90
2015,07,04,00,33,20.90
2015,07,04,00,34,20.70
2015,07,04,00,35,20.70
2015,07,04,00,36,20.60
2015,07,04,00,37,20.50
2015,07,04,00,38,20.40
2015,07,04,00,39,20.30
2015,07,04,00,40,20.30
2015,07,04,00,41,20.20
2015,07,04,00,42,20.20
2015,07,04,00,43,20.10
2015,07,04,00,44,20.10
2015,07,04,00,45,20.10
2015,07,04,00,46,20.10
2015,07,04,00,47,20.10
2015,07,04,00,48,20.10
2015,07,04,00,49,20.10
2015,07,04,00,50,20.10
2015,07,04,00,51,20.10
2015,07,04,00,52,20.10
2015,07,04,00,53,20.10
2015,07,04,00,54,20.10
2015,07,04,00,55,20.10
2015,07,04,00,56,20.10
2015,07,04,00,57,20.10
2015,07,04,05,11,16.80
2015,07,04,05,12,16.70
2015,07,04,05,13,16.70
2015,07,04,05,14,16.70
2015,07,04,05,15,16.70
2015,07,04,05,16,16.70
2015,07,04,05,17,16.70
2015,07,04,05,18,16.70
2015,07,04,05,19,16.60
2015,07,04,05,20,16.70
2015,07,04,05,21,16.70
2015,07,04,05,22,16.70
2015,07,04,05,23,16.70
2015,07,04,05,24,16.80
2015,07,04,05,25,16.80
2015,07,04,05,26,16.70
2015,07,04,05,27,16.70
2015,07,04,05,28,16.70
2015,07,04,05,29,16.60
2015,07,04,05,30,16.60
2015,07,04,05,31,16.60
2015,07,04,05,32,16.60
2015,07,04,05,33,16.60
2015,07,04,05,34,16.60
2015,07,04,05,35,16.60
2015,07,04,05,36,16.50
2015,07,04,05,37,16.40
2015,07,04,05,38,16.40
2015,07,04,05,39,16.30
2015,07,04,05,40,16.30
2015,07,04,05,41,16.30
2015,07,04,05,42,16.30
2015,07,04,05,43,16.30
2015,07,04,05,44,16.30
2015,07,04,05,45,16.30
2015,07,04,05,46,16.30
2015,07,04,05,47,16.40
2015,07,04,05,48,16.30
2015,07,04,05,49,16.30
2015,07,04,05,50,16.30
2015,07,04,05,51,16.30
2015,07,04,05,52,16.30
2015,07,04,05,53,16.40
2015,07,04,05,54,16.40
2015,07,04,05,55,16.40
2015,07,04,05,56,16.40
2015,07,04,05,57,16.40
2015,07,04,05,58,16.40
2015,07,04,05,59,16.40
2015,07,04,06,00,16.40
2015,07,04,06,01,16.50
2015,07,04,06,02,16.50
2015,07,04,06,03,16.50
2015,07,04,06,04,16.50
2015,07,04,06,05,16.50
2015,07,04,06,06,16.50
2015,07,04,06,07,16.60
2015,07,04,06,08,16.60
2015,07,04,06,09,16.60
2015,07,04,06,10,16.60
2015,07,04,06,11,16.60
2015,07,04,06,12,16.70
2015,07,04,06,13,16.70
2015,07,04,06,14,16.70
2015,07,04,06,15,16.70
2015,07,04,06,16,16.70
2015,07,04,06,17,16.70
2015,07,04,06,18,16.70
2015,07,04,06,19,16.60
2015,07,04,06,20,16.60
2015,07,04,06,21,16.60
2015,07,04,06,22,16.60
2015,07,04,06,23,16.60
2015,07,04,06,24,16.50
2015,07,04,06,25,16.50
2015,07,04,06,26,16.50
2015,07,04,06,27,16.50
2015,07,04,06,28,16.50
2015,07,04,06,29,16.50
2015,07,04,06,30,16.50
2015,07,04,06,31,16.50
2015,07,04,06,32,16.50
2015,07,04,06,33,16.50
2015,07,04,06,34,16.60
2015,07,04,06,35,16.60
2015,07,04,06,36,16.60
2015,07,04,06,37,16.60
2015,07,04,06,38,16.60
2015,07,04,06,39,16.70
2015,07,04,06,40,16.70
2015,07,04,06,41,16.70
2015,07,04,06,42,16.70
2015,07,04,06,43,16.80
2015,07,04,06,44,16.80
2015,07,04,06,45,16.80
2015,07,04,06,46,16.80
2015,07,04,06,47,16.80
2015,07,04,06,48,16.90
2015,07,04,06,49,16.90
2015,07,04,06,50,16.90
2015,07,04,06,51,16.90
2015,07,04,06,52,17.00
2015,07,04,06,53,17.00
2015,07,04,06,54,17.00
2015,07,04,06,55,17.10
2015,07,04,06,56,17.10
2015,07,04,06,57,17.10
2015,07,04,06,58,17.10
2015,07,04,06,59,17.10
2015,07,04,07,00,17.10
2015,07,04,07,01,17.20
2015,07,04,07,02,17.20
2015,07,04,07,03,17.20
2015,07,04,07,04,17.20
2015,07,04,07,05,17.30
2015,07,04,07,06,17.30
2015,07,04,07,07,17.30
2015,07,04,07,08,17.40
2015,07,04,07,09,17.40
2015,07,04,07,10,17.40
2015,07,04,07,11,17.40
2015,07,04,07,12,17.40
2015,07,04,07,13,17.60
2015,07,04,07,14,17.60
2015,07,04,07,15,17.60
2015,07,04,07,16,17.70
2015,07,04,07,17,17.80
2015,07,04,07,18,17.80
2015,07,04,07,19,17.90
2015,07,04,07,20,17.90
2015,07,04,07,21,18.00
2015,07,04,07,22,18.00
2015,07,04,07,23,18.10
2015,07,04,07,24,18.10
2015,07,04,07,25,18.10
2015,07,04,07,26,18.10
2015,07,04,07,27,18.10
2015,07,04,07,28,18.10
2015,07,04,07,29,18.10
2015,07,04,07,30,18.20
2015,07,04,07,31,18.20
2015,07,04,07,32,18.30
2015,07,04,07,33,18.30
2015,07,04,07,34,18.40
2015,07,04,07,35,18.40
2015,07,04,07,36,18.50
2015,07,04,07,37,18.50
2015,07,04,07,38,18.60
2015,07,04,07,39,18.60
2015,07,04,07,40,18.70
2015,07,04,07,41,18.70
2015,07,04,07,42,18.70
2015,07,04,07,43,18.70
2015,07,04,07,44,18.70
2015,07,04,07,45,18.80
2015,07,04,07,46,18.80
2015,07,04,07,47,18.80
2015,07,04,07,48,18.80
2015,07,04,07,49,18.80
2015,07,04,07,50,18.80
2015,07,04,07,51,18.80
2015,07,04,07,52,18.80
2015,07,04,07,53,18.80
2015,07,04,07,54,18.80
2015,07,04,07,55,18.80
2015,07,04,07,56,18.80
2015,07,04,07,57,18.90
2015,07,04,07,58,18.90
2015,07,04,07,59,18.90
2015,07,04,08,00,18.90
2015,07,04,08,01,19.00
2015,07,04,08,02,19.00
2015,07,04,08,03,19.00
2015,07,04,08,04,19.10
2015,07,04,08,05,19.10
2015,07,04,08,06,19.10
2015,07,04,08,07,19.10
2015,07,04,08,08,19.10
2015,07,04,08,09,19.20
2015,07,04,08,10,19.20
2015,07,04,08,11,19.20
2015,07,04,08,12,19.20
2015,07,04,08,13,19.20
2015,07,04,08,14,19.20
2015,07,04,08,15,19.20
2015,07,04,08,16,19.30
2015,07,04,08,17,19.30
2015,07,04,08,18,19.30
2015,07,04,08,19,19.30
2015,07,04,08,20,19.30
2015,07,04,08,21,19.40
2015,07,04,08,22,19.40
2015,07,04,08,23,19.40
2015,07,04,08,24,19.50
2015,07,04,08,25,19.50
2015,07,04,08,26,19.60
2015,07,04,08,27,19.60
2015,07,04,08,28,19.70
2015,07,04,08,29,19.70
2015,07,04,08,30,19.70
2015,07,04,08,31,19.70
2015,07,04,08,32,19.80
2015,07,04,08,33,19.80
2015,07,04,08,34,19.80
2015,07,04,08,35,19.90
2015,07,04,08,36,19.90
2015,07,04,08,37,20.00
2015,07,04,08,38,20.10
2015,07,04,08,39,20.10
2015,07,04,08,40,20.20
2015,07,04,08,41,20.20
2015,07,04,08,42,20.30
2015,07,04,08,43,20.30
2015,07,04,08,44,20.40
2015,07,04,08,45,20.40
2015,07,04,08,46,20.40
2015,07,04,08,47,20.50
2015,07,04,08,48,20.50
2015,07,04,08,49,20.50
2015,07,04,08,50,20.60
2015,07,04,08,51,20.60
2015,07,04,08,52,20.70
2015,07,04,08,53,20.70
2015,07,04,08,54,20.70
2015,07,04,08,55,20.70
2015,07,04,08,56,20.80
2015,07,04,08,57,20.80
2015,07,04,08,58,20.80
2015,07,04,08,59,20.80
2015,07,04,09,00,20.80
2015,07,04,09,01,20.80
2015,07,04,09,02,20.80
2015,07,04,09,03,20.80
2015,07,04,09,04,20.80
2015,07,04,09,05,20.80
2015,07,04,09,06,20.90
2015,07,04,09,07,20.90
2015,07,04,09,08,20.90
2015,07,04,09,09,20.90
2015,07,04,09,10,20.90
2015,07,04,09,11,20.90
2015,07,04,09,12,20.90
2015,07,04,09,13,20.90
2015,07,04,09,14,20.90
2015,07,04,09,15,20.90
2015,07,04,09,16,20.90
2015,07,04,09,17,20.90
2015,07,04,09,18,20.90
2015,07,04,09,19,20.90
2015,07,04,09,20,20.90
2015,07,04,09,21,20.90
2015,07,04,09,22,21.00
2015,07,04,09,23,21.10
2015,07,04,09,24,21.20
2015,07,04,09,25,21.20
2015,07,04,09,26,21.30
2015,07,04,09,27,21.40
2015,07,04,09,28,21.40
2015,07,04,09,29,21.40
2015,07,04,09,30,21.40
2015,07,04,09,31,21.40
2015,07,04,09,32,21.50
2015,07,04,09,33,21.50
2015,07,04,09,34,21.60
2015,07,04,09,35,21.60
2015,07,04,09,36,21.70
2015,07,04,09,37,21.70
2015,07,04,09,38,21.70
2015,07,04,09,39,21.70
2015,07,04,09,40,21.60
2015,07,04,09,41,21.60
2015,07,04,09,42,21.60
2015,07,04,09,43,21.60
2015,07,04,09,44,21.60
2015,07,04,09,45,21.60
2015,07,04,09,46,21.60
2015,07,04,09,47,21.60
2015,07,04,09,48,21.60
2015,07,04,09,49,21.70
2015,07,04,09,50,21.70
2015,07,04,09,51,21.80
2015,07,04,09,52,21.80
2015,07,04,09,53,21.80
2015,07,04,09,54,21.80
2015,07,04,09,55,21.80
2015,07,04,09,56,21.80
2015,07,04,09,57,21.80
2015,07,04,09,58,21.80
2015,07,04,09,59,21.70
2015,07,04,10,00,21.70
2015,07,04,10,01,21.80
2015,07,04,10,02,21.80
2015,07,04,10,03,21.80
2015,07,04,10,04,21.90
2015,07,04,10,05,21.90
2015,07,04,10,06,22.00
2015,07,04,10,07,22.10
2015,07,04,10,08,22.10
2015,07,04,10,09,22.30
2015,07,04,10,10,22.40
2015,07,04,10,11,22.50
2015,07,04,10,12,22.60
2015,07,04,10,13,22.70
2015,07,04,10,14,22.80
2015,07,04,10,15,22.80
2015,07,04,10,16,22.80
2015,07,04,10,17,22.90
2015,07,04,10,18,22.90
2015,07,04,10,19,23.00
2015,07,04,10,20,23.00
2015,07,04,10,21,23.10
2015,07,04,10,22,23.10
2015,07,04,10,23,23.20
2015,07,04,10,24,23.20
2015,07,04,10,25,23.20
2015,07,04,10,26,23.10
2015,07,04,10,27,23.10
2015,07,04,10,28,23.10
2015,07,04,10,29,23.10
2015,07,04,10,30,23.10
2015,07,04,10,31,23.10
2015,07,04,10,32,23.20
2015,07,04,10,33,23.30
2015,07,04,10,34,23.30
2015,07,04,10,35,23.30
2015,07,04,10,36,23.40
2015,07,04,10,37,23.50
2015,07,04,10,38,23.50
2015,07,04,10,39,23.50
2015,07,04,10,40,23.50
2015,07,04,10,41,23.50
2015,07,04,10,42,23.60
2015,07,04,10,43,23.60
2015,07,04,10,44,23.60
2015,07,04,10,45,23.70
2015,07,04,10,46,23.80
2015,07,04,10,47,23.80
2015,07,04,10,48,23.80
2015,07,04,10,49,23.70
2015,07,04,10,50,23.70
2015,07,04,10,51,23.80
2015,07,04,10,52,23.90
2015,07,04,10,53,23.90
2015,07,04,10,54,23.90
2015,07,04,10,55,24.10
2015,07,04,10,56,24.20
2015,07,04,10,57,24.30
2015,07,04,10,58,24.30
2015,07,04,10,59,24.30
2015,07,04,11,00,24.30
2015,07,04,11,01,24.40
2015,07,04,11,02,24.40
2015,07,04,11,03,24.40
2015,07,04,11,04,24.40
2015,07,04,11,05,24.50
2015,07,04,11,06,24.60
2015,07,04,11,07,24.60
2015,07,04,11,08,24.60
2015,07,04,11,09,24.60
2015,07,04,11,10,24.70
2015,07,04,11,11,24.70
2015,07,04,11,12,24.70
2015,07,04,11,13,24.70
2015,07,04,11,14,24.70
2015,07,04,11,15,24.80
2015,07,04,11,16,24.80
2015,07,04,11,17,24.80
2015,07,04,11,18,24.80
2015,07,04,11,19,24.80
2015,07,04,11,20,24.80
2015,07,04,11,21,24.80
2015,07,04,11,22,24.80
2015,07,04,11,23,24.70
2015,07,04,11,24,24.70
2015,07,04,11,25,24.70
2015,07,04,11,26,24.70
2015,07,04,11,27,24.70
2015,07,04,11,28,24.70
2015,07,04,11,29,24.70
2015,07,04,11,30,24.70
2015,07,04,11,31,24.70
2015,07,04,11,32,24.60
2015,07,04,11,33,24.70
2015,07,04,11,34,24.80
2015,07,04,11,35,24.90
2015,07,04,11,36,24.90
2015,07,04,11,37,25.00
2015,07,04,11,38,25.20
2015,07,04,11,39,25.20
2015,07,04,11,40,25.20
2015,07,04,11,41,25.20
2015,07,04,11,42,25.20
2015,07,04,11,43,25.20
2015,07,04,11,44,25.20
2015,07,04,11,45,25.20
2015,07,04,11,46,25.20
2015,07,04,11,47,25.30
2015,07,04,11,48,25.30
2015,07,04,11,49,25.30
2015,07,04,11,50,25.30
2015,07,04,11,51,25.20
2015,07,04,11,52,25.20
2015,07,04,11,53,25.20
2015,07,04,11,54,25.20
2015,07,04,11,55,25.20
2015,07,04,11,56,25.20
2015,07,04,11,57,25.20
2015,07,04,11,58,25.20
2015,07,04,11,59,25.20
2015,07,04,12,00,25.30
2015,07,04,12,01,25.20
2015,07,04,12,02,25.10
2015,07,04,12,03,25.00
2015,07,04,12,04,25.00
2015,07,04,12,05,25.00
2015,07,04,12,06,25.00
2015,07,04,12,07,25.10
2015,07,04,12,08,25.10
2015,07,04,12,09,25.10
2015,07,04,12,10,25.30
2015,07,04,12,11,25.30
2015,07,04,12,12,25.40
2015,07,04,12,13,25.50
2015,07,04,12,14,25.60
2015,07,04,12,15,25.60
2015,07,04,12,16,25.70
2015,07,04,12,17,25.70
2015,07,04,12,18,25.70
2015,07,04,12,19,25.70
2015,07,04,12,20,25.70
2015,07,04,12,21,25.80
2015,07,04,12,22,25.80
2015,07,04,12,23,25.80
2015,07,04,12,24,25.90
2015,07,04,12,25,25.90
2015,07,04,12,26,25.90
2015,07,04,12,27,26.00
2015,07,04,12,28,26.20
2015,07,04,12,29,26.30
2015,07,04,12,30,26.40
2015,07,04,12,31,26.50
2015,07,04,12,32,26.60
2015,07,04,12,33,26.60
2015,07,04,12,34,26.60
2015,07,04,12,35,26.50
2015,07,04,12,36,26.50
2015,07,04,12,37,26.40
2015,07,04,12,38,26.40
2015,07,04,12,39,26.40
2015,07,04,12,40,26.50
2015,07,04,12,41,26.60
2015,07,04,12,42,26.60
2015,07,04,12,43,26.60
2015,07,04,12,44,26.60
2015,07,04,12,45,26.70
2015,07,04,12,46,26.70
2015,07,04,12,47,26.80
2015,07,04,12,48,26.80
2015,07,04,12,49,26.90
2015,07,04,12,50,26.90
2015,07,04,12,51,27.00
2015,07,04,12,52,27.00
2015,07,04,12,53,27.00
2015,07,04,12,54,27.10
2015,07,04,12,55,27.10
2015,07,04,12,56,27.10
2015,07,04,12,57,27.20
2015,07,04,12,58,27.20
2015,07,04,12,59,27.20
2015,07,04,13,00,27.20
2015,07,04,13,01,27.20
2015,07,04,13,02,27.10
2015,07,04,13,03,27.10
2015,07,04,13,04,27.20
2015,07,04,13,05,27.20
2015,07,04,13,06,27.20
2015,07,04,13,07,27.20
2015,07,04,13,08,27.20
2015,07,04,13,09,27.20
2015,07,04,13,10,27.20
2015,07,04,13,11,27.30
2015,07,04,13,12,27.20
2015,07,04,13,13,27.20
2015,07,04,13,14,27.20
2015,07,04,13,15,27.40
2015,07,04,13,16,27.50
2015,07,04,13,17,27.60
2015,07,04,13,18,27.70
2015,07,04,13,19,27.70
2015,07,04,13,20,27.90
2015,07,04,13,21,27.90
2015,07,04,13,22,28.00
2015,07,04,13,23,28.00
2015,07,04,13,24,28.10
2015,07,04,13,25,28.10
2015,07,04,13,26,28.10
2015,07,04,13,27,28.10
2015,07,04,13,28,28.10
2015,07,04,13,29,28.10
2015,07,04,13,30,28.20
2015,07,04,13,31,28.20
2015,07,04,13,32,28.20
2015,07,04,13,33,28.20
2015,07,04,13,34,28.10
2015,07,04,13,35,28.10
2015,07,04,13,36,28.10
2015,07,04,13,37,28.10
2015,07,04,13,38,28.10
2015,07,04,13,39,28.20
2015,07,04,13,40,28.30
2015,07,04,13,41,28.30
2015,07,04,13,42,28.30
2015,07,04,13,43,28.60
2015,07,04,13,44,28.60
2015,07,04,13,45,28.60
2015,07,04,13,46,28.70
2015,07,04,13,47,28.70
2015,07,04,13,48,28.70
2015,07,04,13,49,28.70
2015,07,04,13,50,28.70
2015,07,04,13,51,28.70
2015,07,04,13,52,28.80
2015,07,04,13,53,28.80
2015,07,04,13,54,28.90
2015,07,04,13,55,28.90
2015,07,04,13,56,29.00
2015,07,04,13,57,29.10
2015,07,04,13,58,29.20
2015,07,04,13,59,29.20
2015,07,04,14,00,29.20
2015,07,04,14,01,29.20
2015,07,04,14,02,29.20
2015,07,04,14,03,29.20
2015,07,04,14,04,29.20
2015,07,04,14,05,29.20
2015,07,04,14,06,29.20
2015,07,04,14,07,29.10
2015,07,04,14,08,29.10
2015,07,04,14,09,29.20
2015,07,04,14,10,29.20
2015,07,04,14,11,29.20
2015,07,04,14,12,29.20
2015,07,04,14,13,29.20
2015,07,04,14,14,29.30
2015,07,04,14,15,29.30
2015,07,04,14,16,29.30
2015,07,04,14,17,29.20
2015,07,04,14,18,29.20
2015,07,04,14,19,29.20
2015,07,04,14,20,29.20
2015,07,04,14,21,29.20
2015,07,04,14,22,29.10
2015,07,04,14,23,29.10
2015,07,04,14,24,29.20
2015,07,04,14,25,29.20
2015,07,04,14,26,29.30
2015,07,04,14,27,29.30
2015,07,04,14,28,29.30
2015,07,04,14,29,29.40
2015,07,04,14,30,29.50
2015,07,04,14,31,29.50
2015,07,04,14,32,29.50
2015,07,04,14,33,29.50
2015,07,04,14,34,29.40
2015,07,04,14,35,29.40
2015,07,04,14,36,29.50
2015,07,04,14,37,29.50
2015,07,04,14,38,29.60
2015,07,04,14,39,29.60
2015,07,04,14,40,29.70
2015,07,04,14,41,29.70
2015,07,04,14,42,29.60
2015,07,04,14,43,29.60
2015,07,04,14,44,29.60
2015,07,04,14,45,29.60
2015,07,04,14,46,29.60
2015,07,04,14,47,29.60
2015,07,04,14,48,29.60
2015,07,04,14,49,29.50
2015,07,04,14,50,29.40
2015,07,04,14,51,29.40
2015,07,04,14,52,29.30
2015,07,04,14,53,29.30
2015,07,04,14,54,29.20
2015,07,04,14,55,29.20
2015,07,04,14,56,29.20
2015,07,04,14,57,29.20
2015,07,04,14,58,29.20
2015,07,04,14,59,29.30
2015,07,04,15,00,29.30
2015,07,04,15,01,29.40
2015,07,04,15,02,29.40
2015,07,04,15,03,29.40
2015,07,04,15,04,29.40
2015,07,04,15,05,29.40
2015,07,04,15,06,29.40
2015,07,04,15,07,29.40
2015,07,04,15,08,29.30
2015,07,04,15,09,29.40
2015,07,04,15,10,29.40
2015,07,04,15,11,29.40
2015,07,04,15,12,29.40
2015,07,04,15,13,29.40
2015,07,04,15,14,29.40
2015,07,04,15,15,29.40
2015,07,04,15,16,29.40
2015,07,04,15,17,29.50
2015,07,04,15,18,29.50
2015,07,04,15,19,29.60
2015,07,04,15,20,29.70
2015,07,04,15,21,29.70
2015,07,04,15,22,29.70
2015,07,04,15,23,29.70
2015,07,04,15,24,29.70
2015,07,04,15,25,29.70
2015,07,04,15,26,29.60
2015,07,04,15,27,29.40
2015,07,04,15,28,29.40
2015,07,04,15,29,29.40
2015,07,04,15,30,29.40
2015,07,04,15,31,29.40
2015,07,04,15,32,29.40
2015,07,04,15,33,29.40
2015,07,04,15,34,29.40
2015,07,04,15,35,29.30
2015,07,04,15,36,29.30
2015,07,04,15,37,29.30
2015,07,04,15,38,29.30
2015,07,04,15,39,29.30
2015,07,04,15,40,29.30
2015,07,04,15,41,29.40
2015,07,04,15,42,29.50
2015,07,04,15,43,29.50
2015,07,04,15,44,29.60
2015,07,04,15,45,29.60
2015,07,04,15,46,29.60
2015,07,04,15,47,29.60
2015,07,04,15,48,29.60
2015,07,04,15,49,29.70
2015,07,04,15,50,29.70
2015,07,04,15,51,29.70
2015,07,04,15,52,29.70
2015,07,04,15,53,29.60
2015,07,04,15,54,29.60
2015,07,04,15,55,29.60
2015,07,04,15,56,29.60
2015,07,04,15,57,29.60
2015,07,04,15,58,29.70
2015,07,04,15,59,29.80
2015,07,04,16,00,29.90
2015,07,04,16,01,29.90
2015,07,04,16,02,29.90
2015,07,04,16,03,29.90
2015,07,04,16,04,29.90
2015,07,04,16,05,29.90
2015,07,04,16,06,29.90
2015,07,04,16,07,29.90
2015,07,04,16,08,29.90
2015,07,04,16,09,29.90
2015,07,04,16,10,29.90
2015,07,04,16,11,29.90
2015,07,04,16,12,29.90
2015,07,04,16,13,29.90
2015,07,04,16,14,29.90
2015,07,04,16,15,29.90
2015,07,04,16,16,29.90
2015,07,04,16,17,29.90
